Location: Bailey Volunteer Fire Department
(33.4359°N, 96.1680°W)
Time: 17:24:05
(UTC+00:00)

IRIDIUM 106 - Pass Details

Date: 13 December 2025
Orbit: 776 x 779 km, 86.4° (Epoch: 13 January)

Event Time Altitude Azimuth Distance (km) Brightness Sun altitude
Rises 12:17:45 0° 189° (S) 3,246 7.7 -12.8°
Reaches altitude 10° 12:20:07 10° 193° (SSW) 2,322 6.9 -12.3°
Maximum altitude 12:25:15 61° 273° (W) 881 4.3 -11.3°
Drops below altitude 10° 12:30:25 10° 354° (N) 2,335 6.5 -10.3°
Sets 12:32:49 0° 358° (N) 3,266 7.3 -9.8°
